Regional Weather Roundup
Issued by NWS

Home | Current Version | Previous Version | Text Only | Print | Product List | Glossary Off
Versions: 1 2 3 4 5 6 7 8 9 10 11 12 13 14 15 16 17 18 19 20 21 22 23 24 25 26 27 28 29 30 31 32 33 34 35 36 37 38 39 40 41 42 43 44 45 46 47 48 49 50

000
ASUS45 KTFX 081610
RWRMT
MONTANA REGIONAL WEATHER ROUNDUP
NATIONAL WEATHER SERVICE GREAT FALLS MT
900 AM MST MON FEB 08 2016

NOTE: "FAIR" INDICATES FEW OR NO CLOUDS BELOW 12000 FEET WITH NO
SIGNIFICANT WEATHER AND/OR OBSTRUCTIONS TO VISIBILITY.

MTZ001>007-043-081700-
WEST OF THE DIVIDE

CITY           SKY/WX    TMP DP  RH WIND       PRES   REMARKS
KALISPELL      CLOUDY    31  28  89 CALM      30.61F
MISSOULA       CLOUDY    32  27  81 CALM      30.65S
BUTTE          CLOUDY    25  20  81 CALM      30.59R
MULLAN PASS    CLOUDY    32  26  78 S6        30.56S WCI  26
ANACONDA         N/A     32  25  74 CALM      30.60R
DEER LODGE       N/A     32  25  74 CALM      30.61S
HAMILTON         N/A     32  27  80 CALM      30.62F
LIBBY            N/A     28  27  93 CALM      30.64F
PLAINS           N/A     31  26  81 CALM      30.60S
$$

MTZ008-052>055-081700-
SOUTHWEST MONTANA

CITY           SKY/WX    TMP DP  RH WIND       PRES   REMARKS
BOZEMAN        CLOUDY    26  21  81 SE7       30.58R WCI  18
DILLON         CLOUDY    25  18  74 W7        30.59R WCI  17
ENNIS          SUNNY     27  21  80 S12       30.66S WCI  16
TWIN BRIDGES     N/A     20  13  74 SE3       30.52R
$$

MTZ009-010-012-014-046-048-049-054-081700-
EAST SLOPES AND CENTRAL MONTANA

CITY           SKY/WX    TMP DP  RH WIND       PRES   REMARKS
GREAT FALLS    CLOUDY    42  24  49 SW14      30.41F
MALMSTROM AFB  CLOUDY    44  25  48 SW18      30.42F
HELENA         CLOUDY    27  20  75 VRB3      30.55R
CHOTEAU          N/A     48  30  49 W16G22    30.39F
CONRAD           N/A     47  34  60 SW13      30.35S
$$

MTZ011-013-016-021-045-047-050-051-081700-
NORTH CENTRAL MONTANA

CITY           SKY/WX    TMP DP  RH WIND       PRES   REMARKS
HAVRE          MOSUNNY   29  22  75 SW18      30.37F WCI  16
N BAR RANCH      N/A     45  23  42 NW20G31   30.38R
CHINOOK          N/A     23  18  80 CALM      30.41R
$$

MTZ017>020-022>027-061-062-081700-
NORTHEAST MONTANA

CITY           SKY/WX    TMP DP  RH WIND       PRES   REMARKS
GLASGOW        CLOUDY    25  16  68 NW3       30.41R
JORDAN           N/A     28  19  69 W6        30.39S WCI  22
SIDNEY         MOSUNNY   28  16  59 NW15      30.39R WCI  17
WOLF POINT     CLOUDY    26  19  74 SW6       30.42S WCI  19
PLENTYWOOD       N/A     21  18  86 W10       30.36F WCI  10
POPLAR           N/A     25  19  80 W10       30.42S WCI  15
SCOBEY           N/A     22  10  59 W1        30.33S
$$

MTZ028>42-056>058-081700-
SOUTHCENTRAL AND SOUTHEAST MONTANA

CITY           SKY/WX    TMP DP  RH WIND       PRES   REMARKS
BAKER          CLOUDY    26  15  63 W13       30.38S WCI  15
BILLINGS       CLOUDY    32  15  49 SW17      30.43S WCI  21
LIVINGSTON     CLOUDY    45  24  43 W22G31    30.51R
MILES CITY     CLOUDY    29  17  61 SW6       30.41F WCI  23
EKALAKA          N/A     25  12  57 W5        30.31R
FORSYTH          N/A     27  14  59 W3        30.42F
LAUREL           N/A     31  14  49 SW8       30.38S WCI  24
ROUNDUP          N/A     33  18  54 SW2       30.28S
$$

REGIONAL REPORTS...DAKOTAS

CITY           SKY/WX    TMP DP  RH WIND       PRES   REMARKS
WILLISTON      CLOUDY    26  16  65 NW10      30.37S WCI  16
MINOT          CLOUDY    26  13  57 W21       30.28S WCI  12
DICKINSON      CLOUDY    23  15  71 NW20G25   30.30R WCI   8
BEACH          PTSUNNY   27  16  63 NW15      30.40R WCI  15
CROSBY           N/A     23  19  86 W9        30.38S WCI  13
TIOGA            N/A     21  19  93 NW14      30.37F WCI   8
WATFORD CITY     N/A     25  18  74 NW10      30.36R WCI  15
BISMARCK       CLOUDY    30  17  58 NW16G26   30.29S WCI  19
GRAND FORKS    LGT SNOW  14   9  80 N26G40    30.20R VSB 3/4 WCI  -6
FARGO          LGT SNOW  14   8  77 N23       30.18R WCI  -5
BUFFALO SD       N/A     28  14  55 W17       30.29S WCI  16
RAPID CITY     CLOUDY    33  10  38 NW30G38   30.33S WCI  19
$$

REGIONAL REPORTS...WYOMING/IDAHO/WASHINGTON

CITY           SKY/WX    TMP DP  RH WIND       PRES   REMARKS
GILLETTE       CLOUDY    27  11  51 W9        30.39F WCI  18
SHERIDAN       PTSUNNY   36  18  48 W7        30.40F WCI  30
BUFFALO WY     CLOUDY    35  19  52 N8        30.39F WCI  29
CODY           CLOUDY    28  16  59 CALM      30.44R
YELLOWSTONE LA   N/A     13   8  81 CALM      30.63R
IDAHO FALLS    FOG       22  20  92 N7        30.74R VSB 1   WCI  13
SALMON         CLOUDY    25  18  74 CALM      30.74R
BOISE          CLEAR     32  28  85 SE3       30.69R
SPOKANE        MOCLDY    32  28  85 NE8       30.60S WCI  25
$$

REGIONAL REPORTS...ALBERTA

CITY           SKY/WX    TMP DP  RH WIND       PRES   REMARKS
EDMONTON       MOCLDY    30  18  59 W8        30.27R WCI  23
CALGARY        MOCLDY    48  23  37 W18G28    30.28S
LETHBRIDGE     MOCLDY    45  28  53 W21G29    30.34R
MEDICINE HAT   MOCLDY    27  23  86 SW9       30.32F WCI  17
CARDSTON         N/A     46  27  46 W16G25      N/A
MILK RIVER       N/A     37  27  65 W12         N/A  WCI  30
ONEFOUR          N/A     27  21  80 CALM        N/A
$$

REGIONAL REPORTS...SASKATCHEWAN

CITY           SKY/WX    TMP DP  RH WIND       PRES   REMARKS
SWIFT CURRENT  CLOUDY    27  18  69 SW9       30.32S WCI  17
REGINA         PTSUNNY   18  14  86 W5        30.35F
SASKATOON      CLOUDY    18  16  93 SW6       30.36R WCI   9
CYPRESS HILLS    N/A     32  16  51 W6          N/A  WCI  26
VAL MARIE        N/A     25  16  68 S5          N/A
ROCKGLEN         N/A     25  16  68 W6          N/A  WCI  18
ASSINIBOIA       N/A     28  21  74 S7          N/A  WCI  21
$$



USA.gov is the U.S. government's official web portal to all federal, state and local government web resources and services.